Terminal Aerodrome Forecast
Issued by NWS

Home | Current Version | Previous Version | Text Only | Print | Product List | Glossary On
Versions: 1 2 3 4 5 6 7 8 9 10 11 12 13 14 15 16 17 18 19 20 21 22 23 24 25 26 27 28 29 30 31 32 33 34 35 36 37 38 39 40 41 42 43 44 45 46 47 48 49 50
000
FTUS45 KCYS 280941 AAA
TAFRWL
TAF AMD
KRWL 280941Z 2810/2906 24016KT P6SM BKN040 OVC100
     FM281500 24028G40KT 6SM -SHSN OVC050
     FM290000 27008KT 2SM -SN OVC015=

USA.gov is the U.S. government's official web portal to all federal, state and local government web resources and services.